Location: B
(0.0000°N, 0.0000°E)
Time: 21:53:26
(UTC+02:00)

ISS - All Passes

Search period start: 23 June 2018 00:00
Search period end: 03 July 2018 00:00
Orbit: 403 x 408 km, 51.6° (Epoch: 24 June)

Date Brightness Start Highest point End Pass type
(mag) Time Alt. Az. Time Alt. Az. Time Alt. Az.
23 Jun - 06:15:04 10° SSE 06:16:47 14° SE 06:18:31 10° E visible
23 Jun - 07:50:46 10° W 07:53:05 18° NW 07:55:24 10° N daylight
23 Jun - 19:24:11 10° WNW 19:27:03 28° SW 19:29:55 10° S daylight
24 Jun - 06:57:54 10° SW 07:01:05 48° NW 07:04:15 10° NNE visible
24 Jun - 18:31:49 10° NW 18:35:03 87° WSW 18:38:19 10° SE daylight
25 Jun - 06:05:53 10° SSW 06:09:06 52° SE 06:12:17 10° NE visible
25 Jun - 17:40:09 10° N 17:43:03 30° NE 17:45:58 10° ESE daylight
26 Jun - 05:14:40 10° S 05:17:04 19° SE 05:19:29 10° ENE visible
26 Jun - 06:51:50 10° W 06:53:22 13° NW 06:54:53 10° NNW visible
26 Jun - 16:49:43 10° NNE 16:51:01 12° NE 16:52:19 10° ENE daylight
26 Jun - 18:24:51 10° WNW 18:27:18 20° SW 18:29:47 10° S daylight
27 Jun - 05:58:21 10° WSW 06:01:19 32° NW 06:04:17 10° N visible
27 Jun - 17:32:05 10° NW 17:35:16 55° SW 17:38:28 10° SSE daylight
28 Jun - 05:06:01 10° SSW 05:09:17 81° SE 05:12:33 10° NE visible
28 Jun - 16:40:07 10° NNW 16:43:15 45° NE 16:46:23 10° SE daylight
29 Jun - 04:14:25 10° S 04:17:14 27° SE 04:20:04 10° ENE night (unlit)
29 Jun - 15:49:00 10° NNE 15:51:11 17° NE 15:53:22 10° E daylight
29 Jun - 17:25:38 10° W 17:27:28 14° SW 17:29:17 10° SSW daylight
30 Jun - 03:24:22 10° SE 03:25:09 11° SE 03:25:58 10° ESE night (unlit)
30 Jun - 04:58:49 10° WSW 05:01:27 22° NW 05:04:05 10° N night (unlit)
30 Jun - 16:32:20 10° WNW 16:35:23 36° SW 16:38:25 10° SSE daylight
01 Jul - 04:06:08 10° SW 04:09:23 65° NW 04:12:37 10° NNE night (unlit)
01 Jul - 15:40:04 10° NNW 15:43:18 70° NE 15:46:34 10° SE daylight
02 Jul - 03:14:13 10° SSW 03:17:17 39° SE 03:20:22 10° NE night (unlit)
02 Jul - 14:48:32 10° N 14:51:13 23° NE 14:53:54 10° ESE daylight
02 Jul - 16:27:22 10° SW 16:27:31 10° SW 16:27:39 10° SW daylight
